Charlevoix, MI

4:02 AM EDT on September 21, 2017 (GMT -0400)
Charlevoix Municipal

Weather History for KCVX - January, 2015

Change the Weather History Date:

Wednesday, January 14, 2015

  Actual Average Record
Temperature  
Mean Temperature 14 °F -  
Max Temperature 24 °F 26 °F 32 °F (2008)
Min Temperature 5 °F 17 °F 5 °F (2009)
Degree Days  
Heating Degree Days 50    
Moisture  
Dew Point 15 °F    
Average Humidity 84    
Maximum Humidity 89    
Minimum Humidity 79    
Precipitation  
Precipitation 0.00 in - - ()
Sea Level Pressure  
Sea Level Pressure 30.23 in    
Wind  
Wind Speed 8 mph (SSW)    
Max Wind Speed 13 mph    
Max Gust Speed 17 mph    
Visibility 9 miles    
Events Snow    
Averages and records for this station are not official NWS values.
T = Trace of Precipitation, MM = Missing Value Source: NWS Daily Summary

Daily Weather History Graph

Daily Weather History Graph

Search for Another Location

Airport or City:

Trip Planner

Search our weather history database for the weather conditions in past years. The results will help you decide how hot, cold, wet, or windy it might be!

Date:

Astronomy

Jan. 14, 2015 Rise Set
Actual Time 8:17 AM EST 5:23 PM EST
Civil Twilight 7:44 AM EST 5:56 PM EST
Nautical Twilight 7:07 AM EST 6:32 PM EST
Astronomical Twilight 6:32 AM EST 7:08 PM EST
Moon 2:02 AM EST (1/14) 12:43 PM EST (1/14)
Length of Visible Light 10h 12m
Length of Day
9h 05m
Last Quarter, 37% of the Moon is Illuminated
Jan 14
Last Quarter
Jan 20
New
Jan 26
First Quarter
Feb 3
Full
Feb 11
Last Quarter

Hourly Weather History & Observations

Time (EST) Temp. Windchill Dew Point Humidity Pressure Visibility Wind Dir Wind Speed Gust Speed Precip Events Conditions
12:15 AM 5.7 °F -7.2 °F 2.1 °F 85% 30.44 in 10.0 mi SSE 8.1 mph - N/A   Mostly Cloudy
12:34 AM 5.9 °F -5.8 °F 2.1 °F 84% 30.43 in 10.0 mi SSE 6.9 mph - N/A   Mostly Cloudy
12:55 AM 6.1 °F -6.8 °F 2.3 °F 84% 30.41 in 10.0 mi SSE 8.1 mph - N/A   Mostly Cloudy
1:14 AM 6.8 °F -4.8 °F 3.0 °F 84% 30.40 in 10.0 mi SSE 6.9 mph - N/A   Overcast
1:35 AM 6.8 °F -4.8 °F 3.2 °F 85% 30.40 in 10.0 mi SSE 6.9 mph - N/A Snow Light Snow
1:55 AM 7.9 °F -4.6 °F 4.1 °F 85% 30.39 in 10.0 mi SSE 8.1 mph - N/A   Overcast
2:14 AM 9.0 °F -5.1 °F 5.0 °F 84% 30.38 in 10.0 mi South 10.4 mph - N/A   Overcast
2:35 AM 8.8 °F -4.4 °F 4.3 °F 82% 30.38 in 10.0 mi South 9.2 mph - N/A   Overcast
2:55 AM 9.0 °F -5.1 °F 4.5 °F 82% 30.37 in 10.0 mi South 10.4 mph - N/A   Overcast
3:14 AM 9.5 °F -2.6 °F 5.0 °F 82% 30.36 in 10.0 mi SSE 8.1 mph - N/A Snow Light Snow
3:35 AM 10.0 °F -4.5 °F 5.2 °F 81% 30.35 in 10.0 mi SSE 11.5 mph - N/A   Overcast
3:55 AM 10.2 °F -2.7 °F 5.5 °F 81% 30.34 in 10.0 mi SSE 9.2 mph - N/A   Overcast
4:14 AM 10.2 °F -2.7 °F 5.9 °F 83% 30.33 in 10.0 mi South 9.2 mph - N/A   Overcast
4:35 AM 10.8 °F -1.1 °F 6.4 °F 83% 30.32 in 10.0 mi South 8.1 mph - N/A Snow Light Snow
4:55 AM 12.0 °F 1.5 °F 7.7 °F 83% 30.31 in 7.0 mi South 6.9 mph - N/A Snow Light Snow
5:14 AM 12.2 °F 2.9 °F 8.1 °F 83% 30.30 in 7.0 mi South 5.8 mph - N/A Snow Light Snow
5:35 AM 12.9 °F 2.6 °F 9.1 °F 85% 30.29 in 7.0 mi South 6.9 mph - N/A Snow Light Snow
5:55 AM 14.0 °F 3.9 °F 10.4 °F 86% 30.28 in 7.0 mi South 6.9 mph - N/A Snow Light Snow
6:14 AM 14.0 °F 3.9 °F 10.4 °F 86% 30.27 in 10.0 mi South 6.9 mph - N/A Snow Light Snow
6:35 AM 14.0 °F 6.5 °F 10.8 °F 87% 30.26 in 10.0 mi South 4.6 mph - N/A Snow Light Snow
6:55 AM 15.4 °F 6.8 °F 12.7 °F 89% 30.26 in 10.0 mi SSE 5.8 mph - N/A Snow Light Snow
7:14 AM 14.2 °F 6.7 °F 10.9 °F 87% 30.26 in 7.0 mi ESE 4.6 mph - N/A Snow Light Snow
7:35 AM 13.6 °F 4.6 °F 10.8 °F 88% 30.25 in 7.0 mi SE 5.8 mph - N/A Snow Light Snow
7:55 AM 14.0 °F 6.5 °F 11.3 °F 89% 30.25 in 7.0 mi South 4.6 mph - N/A Snow Light Snow
8:14 AM 19.8 °F 9.9 °F 16.3 °F 87% 30.25 in 10.0 mi SW 8.1 mph - N/A Snow Light Snow
8:35 AM 20.1 °F 12.3 °F 16.3 °F 85% 30.25 in 10.0 mi SW 5.8 mph - N/A   Overcast
8:54 AM 20.3 °F 9.8 °F 16.2 °F 84% 30.25 in 10.0 mi SW 9.2 mph - N/A   Overcast
9:15 AM 20.5 °F 10.8 °F 16.0 °F 83% 30.25 in 10.0 mi SW 8.1 mph - N/A   Overcast
9:35 AM 20.5 °F 10.8 °F 15.8 °F 82% 30.25 in 10.0 mi SW 8.1 mph - N/A   Overcast
9:54 AM 20.7 °F 10.2 °F 15.8 °F 81% 30.25 in 10.0 mi SSW 9.2 mph - N/A   Overcast
10:15 AM 20.8 °F 10.4 °F 15.8 °F 81% 30.25 in 10.0 mi SW 9.2 mph - N/A   Overcast
10:35 AM 21.0 °F 9.9 °F 15.8 °F 80% 30.25 in 10.0 mi SW 10.4 mph 16.1 mph N/A   Overcast
10:54 AM 21.2 °F 10.9 °F 15.8 °F 80% 30.24 in 10.0 mi SSW 9.2 mph - N/A   Overcast
11:15 AM 21.7 °F 12.3 °F 16.2 °F 79% 30.24 in 10.0 mi SW 8.1 mph - N/A   Overcast
11:34 AM 22.1 °F 12.8 °F 16.5 °F 79% 30.23 in 10.0 mi SSW 8.1 mph - N/A   Overcast
11:54 AM 22.1 °F 12.8 °F 16.7 °F 80% 30.22 in 10.0 mi SSW 8.1 mph - N/A   Overcast
12:15 PM 22.1 °F 10.6 °F 16.7 °F 80% 30.22 in 10.0 mi SSW 11.5 mph - N/A   Overcast
12:34 PM 22.1 °F 12.0 °F 16.7 °F 80% 30.21 in 10.0 mi SSW 9.2 mph - N/A   Overcast
12:55 PM 22.1 °F 12.8 °F 17.1 °F 81% 30.20 in 10.0 mi SSW 8.1 mph - N/A   Overcast
1:15 PM 22.3 °F 14.9 °F 17.2 °F 81% 30.19 in 10.0 mi SW 5.8 mph - N/A   Overcast
1:34 PM 22.6 °F 14.3 °F 17.6 °F 81% 30.19 in 10.0 mi SW 6.9 mph - N/A   Overcast
1:55 PM 23.7 °F 12.1 °F 18.3 °F 80% 30.17 in 10.0 mi SW 12.7 mph 17.3 mph N/A   Overcast
2:15 PM 23.5 °F 12.4 °F 18.3 °F 80% 30.17 in 10.0 mi WSW 11.5 mph 17.3 mph N/A   Overcast
2:34 PM 23.5 °F 11.8 °F 18.5 °F 81% 30.17 in 7.0 mi WSW 12.7 mph - N/A   Overcast
2:55 PM 23.0 °F 13.9 °F 18.5 °F 83% 30.17 in 7.0 mi WSW 8.1 mph 17.3 mph N/A   Overcast
3:15 PM 23.0 °F 13.1 °F 18.5 °F 83% 30.17 in 10.0 mi WSW 9.2 mph - N/A   Overcast
3:34 PM 23.0 °F 11.7 °F 19.0 °F 85% 30.17 in 10.0 mi West 11.5 mph 16.1 mph N/A   Overcast
3:55 PM 23.0 °F 12.4 °F 19.2 °F 85% 30.17 in 7.0 mi WSW 10.4 mph - N/A   Overcast
4:15 PM 23.0 °F 13.9 °F 19.4 °F 86% 30.17 in 7.0 mi WSW 8.1 mph - N/A   Overcast
4:34 PM 23.0 °F 14.7 °F 19.4 °F 86% 30.17 in 7.0 mi WSW 6.9 mph - N/A   Overcast
4:55 PM 23.0 °F 14.7 °F 19.4 °F 86% 30.17 in 5.0 mi WSW 6.9 mph - N/A   Overcast
5:15 PM 23.0 °F 15.8 °F 19.4 °F 86% 30.17 in 5.0 mi WSW 5.8 mph - N/A   Overcast
5:34 PM 23.0 °F 13.1 °F 19.2 °F 85% 30.17 in 7.0 mi WSW 9.2 mph - N/A   Overcast
5:55 PM 23.0 °F 13.1 °F 19.4 °F 86% 30.17 in 10.0 mi WSW 9.2 mph - N/A   Overcast
6:15 PM 23.0 °F 13.9 °F 19.4 °F 86% 30.17 in 10.0 mi SW 8.1 mph - N/A   Overcast
6:34 PM 23.0 °F 13.9 °F 19.4 °F 86% 30.17 in 10.0 mi WSW 8.1 mph - N/A   Overcast
6:55 PM 23.4 °F 16.2 °F 19.4 °F 85% 30.16 in 10.0 mi SW 5.8 mph - N/A   Overcast
7:15 PM 23.4 °F 17.4 °F 19.4 °F 85% 30.16 in 10.0 mi SW 4.6 mph - N/A   Overcast
7:34 PM 23.4 °F 16.2 °F 19.8 °F 86% 30.15 in 10.0 mi SW 5.8 mph - N/A   Overcast
7:55 PM 23.5 °F 17.6 °F 19.9 °F 86% 30.15 in 10.0 mi WSW 4.6 mph - N/A   Overcast
8:15 PM 23.7 °F 16.6 °F 19.8 °F 85% 30.15 in 10.0 mi SW 5.8 mph - N/A   Overcast
8:35 PM 23.7 °F 16.6 °F 19.8 °F 85% 30.15 in 10.0 mi SW 5.8 mph - N/A   Overcast
8:55 PM 23.9 °F 15.0 °F 19.9 °F 85% 30.15 in 10.0 mi SW 8.1 mph - N/A   Overcast
9:14 PM 23.9 °F 15.0 °F 19.9 °F 85% 30.14 in 10.0 mi SW 8.1 mph - N/A   Overcast
9:35 PM 23.9 °F 15.0 °F 20.1 °F 85% 30.14 in 10.0 mi SW 8.1 mph - N/A   Overcast
9:55 PM 23.9 °F 16.8 °F 20.1 °F 85% 30.14 in 10.0 mi SW 5.8 mph - N/A   Overcast
10:14 PM 24.3 °F 15.4 °F 20.3 °F 85% 30.13 in 10.0 mi SW 8.1 mph - N/A   Overcast
10:35 PM 24.4 °F 16.5 °F 20.5 °F 85% 30.12 in 7.0 mi SW 6.9 mph - N/A   Overcast
10:54 PM 24.4 °F 17.5 °F 20.7 °F 86% 30.12 in 7.0 mi SW 5.8 mph - N/A   Overcast
11:15 PM 24.6 °F 15.1 °F 20.8 °F 86% 30.12 in 7.0 mi SW 9.2 mph - N/A   Overcast
11:35 PM 24.4 °F 16.5 °F 20.8 °F 86% 30.11 in 7.0 mi SW 6.9 mph - N/A   Overcast
11:54 PM 24.6 °F 16.7 °F 21.0 °F 86% 30.10 in 7.0 mi SSW 6.9 mph - N/A   Overcast